• Processing (Info)

  • MPEC 2006-N07 : 2006 NL

    The following Minor Planet Electronic Circular may be linked-to from your own Web pages, but must not otherwise be redistributed electronically.

    A form allowing access to any MPEC is at the bottom of this page.


    Read MPEC 2006-N06 Read MPEC 2006-N08


    M.P.E.C. 2006-N07                                Issued 2006 July 6, 22:26 UT
    
         The Minor Planet Electronic Circulars contain information on unusual
             minor planets and routine data on comets.  They are published
       on behalf of Commission 20 of the International Astronomical Union by the
              Minor Planet Center, Smithsonian Astrophysical Observatory,
                              Cambridge, MA 02138, U.S.A.
    
                      Supported in part by the Brinson Foundation
                      Supported in part by the TABASGO Foundation
                 Prepared using the Tamkin Foundation Computer Network
    
                                  MPC@CFA.HARVARD.EDU
              URL http://cfa-www.harvard.edu/iau/mpc.html  ISSN 1523-6714
    
                                        2006 NL
    
    Observations:
         K06N00L* C2006 07 02.39231 23 37 38.09 -00 07 39.4          19.5   EN007704
         K06N00L  C2006 07 02.40258 23 37 36.32 -00 08 24.0          19.7   EN007704
         K06N00L  C2006 07 02.41280 23 37 34.72 -00 09 05.4          19.8   EN007704
         K06N00L  C2006 07 02.42295 23 37 32.91 -00 09 47.7          19.5   EN007704
         K06N00L 5C2006 07 03.46157 23 34 38.65 -01 23 04.3          19.8 R EN007673
         K06N00L 5C2006 07 03.46887 23 34 37.37 -01 23 35.6                 EN007673
         K06N00L 5C2006 07 03.47222 23 34 36.67 -01 23 50.8                 EN007673
         K06N00L 5C2006 07 03.47894 23 34 35.51 -01 24 18.3                 EN007673
         K06N00L  C2006 07 04.03408 23 32 59.32 -02 04 37.5          19.1 V EN007198
         K06N00L  C2006 07 04.03467 23 32 59.22 -02 04 40.0          19.0 V EN007198
         K06N00L  C2006 07 04.03584 23 32 59.01 -02 04 44.9          19.1 V EN007198
         K06N00L  C2006 07 04.03760 23 32 58.68 -02 04 52.7          19.1 V EN007198
         K06N00L  C2006 07 04.03936 23 32 58.35 -02 05 00.3          19.1 V EN007198
         K06N00L  C2006 07 04.95653 23 30 12.94 -03 12 55.5          18.9 V EN007A50
         K06N00L  C2006 07 04.95730 23 30 12.79 -03 12 59.1          19.0 V EN007A50
         K06N00L  C2006 07 04.95884 23 30 12.49 -03 13 05.9          18.9 V EN007A50
         K06N00L  C2006 07 04.96114 23 30 12.04 -03 13 16.2          18.9 V EN007A50
         K06N00L  C2006 07 06.38901 23 25 39.20 -05 02 43.8          19.7 R EN007734
         K06N00L  C2006 07 06.39209 23 25 38.53 -05 02 57.4          19.6 R EN007734
         K06N00L  C2006 07 06.39517 23 25 37.89 -05 03 12.1          19.7 R EN007734
    
    Observer details:
    198 Wildberg.  Observer R. Apitzsch.  0.35-m f/4.2 reflector + CCD.
    673 Table Mountain Observatory, Wrightwood.  Observer J. Young.  0.61-m f/16
        Cassegrain + CCD.
    704 Lincoln Laboratory ETS, New Mexico.  Observers M. Bezpalko, L. Manguso,
        D. Torres, R. Kracke, M. Blythe, H. Love, G. Spitz.  Measurers J. Stuart,
        J. Kommers.  1.0-m f/2.15 reflector + CCD.
    734 Farpoint Observatory.  Observer G. Hug.  0.7-m reflector + CCD.
    A50 Andrushivka Astronomical Observatory.  Observers D. Kyrylenko,
        Y. Ivashchenko.  0.6-m reflector + CCD.
    
    Orbital elements:
    2006 NL                                                  Earth MOID = 0.0590 AU
    Epoch 2006 Mar. 6.0 TT = JDT 2453800.5                  MPC
    M 306.39992              (2000.0)            P               Q
    n   1.26133523     Peri.   29.07139     -0.78670253     -0.52662053
    a   0.8483643      Node   115.57584     +0.47452952     -0.84963413
    e   0.5867073      Incl.   20.92384     +0.39486815     -0.02815428
    P   0.78           H   19.8           G   0.15           U   9
    Residuals in seconds of arc
    060702 704  1.4-  0.7+    060703 673  0.7+  1.6+    060704 A50  0.3-  0.2-
    060702 704  1.5-  1.1-    060704 198  0.2+  0.9-    060704 A50  0.4-  0.0
    060702 704  1.0+  0.0     060704 198  0.3+  0.8-    060704 A50  0.6-  0.1+
    060702 704  0.2+  0.0     060704 198  0.4+  0.6-    060706 734  0.3+  0.3-
    060703 673  0.4+  0.8+    060704 198  0.2+  0.7-    060706 734  0.2-  0.6+
    060703 673  1.1+  1.0+    060704 198  0.1+  0.5-    060706 734  0.2-  0.4+
    060703 673  0.2-  0.2+    060704 A50  0.2-  0.0
    
    Ephemeris:
    2006 NL                  a,e,i = 0.85, 0.59, 21                  q = 0.3506
    Date    TT    R. A. (2000) Decl.     Delta      r     Elong.  Phase     V
    2006 07 04    23 33.07   -02 01.7    0.275    1.135   108.8    58.0    19.4
    2006 07 14    22 55.64   -15 54.2    0.249    1.197   131.7    39.3    18.7
    2006 07 24    21 59.42   -30 54.6    0.252    1.247   153.6    21.3    18.3
    2006 08 03    20 51.40   -41 36.5    0.291    1.286   156.0    18.7    18.6
    2006 08 13    19 52.31   -46 16.5    0.358    1.315   142.5    28.0    19.4
    2006 08 23    19 14.32   -47 21.9    0.442    1.335   129.2    36.0    20.1
    2006 09 02    18 55.46   -47 02.8    0.533    1.345   118.0    41.5    20.7
    2006 09 12    18 49.81   -46 17.5    0.627    1.345   108.6    45.2    21.2
    2006 09 22    18 52.76   -45 25.3    0.719    1.335   100.4    47.7    21.5
    2006 10 02    19 01.54   -44 31.0    0.805    1.316    92.9    49.4    21.8
    2006 10 12    19 14.28   -43 34.5    0.883    1.287    86.2    50.7    22.0
    
    Kyle E. Smalley              (C) Copyright 2006 MPC           M.P.E.C. 2006-N07
    

    Read MPEC 2006-N06 Read MPEC 2006-N08


    MPEC number:

    Enter an MPEC number in one of the following forms:

    • 1997-B01 (the full form)
    • J97B01 (the packed version of the full form)
    • B01 (the abbreviated form)